TimeCDT,TemperatureF,Dew PointF,Humidity,Sea Level PressureIn,VisibilityMPH,Wind Direction,Wind SpeedMPH,Gust SpeedMPH,PrecipitationIn,Events,Conditions,WindDirDegrees,DateUTC
12:21 AM,77.0,71.6,83,29.69,10.0,SW,8.1,-,N/A,Thunderstorm,Mostly Cloudy,220,2012-10-18 05:21:00
12:53 AM,73.9,68.0,82,29.74,10.0,North,9.2,-,0.00,Rain-Thunderstorm,Light Rain,350,2012-10-18 05:53:00
1:18 AM,71.6,66.2,83,29.73,10.0,NE,5.8,-,0.00,Rain-Thunderstorm,Light Rain,40,2012-10-18 06:18:00
1:34 AM,71.6,66.2,83,29.72,10.0,NE,3.5,-,0.00,,Mostly Cloudy,40,2012-10-18 06:34:00
1:44 AM,69.8,66.2,88,29.73,10.0,South,4.6,-,0.00,,Scattered Clouds,190,2012-10-18 06:44:00
1:53 AM,69.1,66.0,90,29.74,10.0,SSE,3.5,-,0.00,,Partly Cloudy,160,2012-10-18 06:53:00
2:53 AM,66.0,64.0,93,29.73,8.0,NNW,3.5,-,N/A,,Clear,340,2012-10-18 07:53:00
3:53 AM,69.1,64.9,87,29.77,10.0,NNW,11.5,-,N/A,,Clear,340,2012-10-18 08:53:00
4:53 AM,66.9,63.0,87,29.80,10.0,North,10.4,-,N/A,,Clear,350,2012-10-18 09:53:00
5:53 AM,66.0,62.1,87,29.83,10.0,NNE,8.1,-,N/A,,Clear,20,2012-10-18 10:53:00
6:53 AM,64.0,55.9,75,29.86,10.0,NE,6.9,16.1,N/A,,Clear,40,2012-10-18 11:53:00
7:53 AM,62.1,52.0,70,29.88,10.0,NNE,3.5,-,N/A,,Clear,30,2012-10-18 12:53:00
8:53 AM,64.9,52.0,63,29.90,10.0,ENE,5.8,-,N/A,,Clear,60,2012-10-18 13:53:00
9:53 AM,69.1,51.1,53,29.91,10.0,ENE,8.1,-,N/A,,Clear,60,2012-10-18 14:53:00
10:53 AM,73.0,46.9,39,29.91,10.0,NNE,11.5,-,N/A,,Clear,30,2012-10-18 15:53:00
11:53 AM,75.0,46.0,36,29.91,10.0,North,6.9,-,N/A,,Clear,10,2012-10-18 16:53:00
12:53 PM,78.1,43.0,29,29.91,10.0,North,6.9,-,N/A,,Overcast,350,2012-10-18 17:53:00
1:53 PM,79.0,41.0,26,29.89,10.0,North,9.2,-,N/A,,Clear,350,2012-10-18 18:53:00
2:53 PM,80.1,37.9,22,29.88,10.0,North,6.9,-,N/A,,Mostly Cloudy,10,2012-10-18 19:53:00
3:53 PM,79.0,39.0,24,29.88,10.0,North,4.6,-,N/A,,Partly Cloudy,360,2012-10-18 20:53:00
4:53 PM,78.1,39.9,25,29.87,10.0,NNW,6.9,-,N/A,,Clear,340,2012-10-18 21:53:00
5:53 PM,75.0,44.1,33,29.88,10.0,North,4.6,-,N/A,,Clear,360,2012-10-18 22:53:00
6:53 PM,63.0,50.0,63,29.89,10.0,Calm,Calm,-,N/A,,Clear,0,2012-10-18 23:53:00
7:53 PM,59.0,51.1,75,29.91,10.0,Calm,Calm,-,N/A,,Clear,0,2012-10-19 00:53:00
8:53 PM,59.0,51.1,75,29.93,10.0,Calm,Calm,-,N/A,,Clear,0,2012-10-19 01:53:00
9:53 PM,55.0,50.0,83,29.94,10.0,Calm,Calm,-,N/A,,Clear,0,2012-10-19 02:53:00
10:53 PM,53.1,50.0,89,29.96,10.0,Calm,Calm,-,N/A,,Clear,0,2012-10-19 03:53:00
11:53 PM,52.0,48.9,89,29.95,10.0,Calm,Calm,-,N/A,,Clear,0,2012-10-19 04:53:00